sat.trackr.live / text

‹ back to catalog

STARLINK-32329

NORAD 62736 · 2025-014B

PAYLOAD ACTIVE UNKNOWN

§ Identity

Operator
Country
US
Launch date
2025-01-21
Launch site
AFETR
Launch vehicle
Mass (kg)
RCS (m²)

Purposes: comms

External: N2YO · Heavens-Above · Gunter

§ Orbital elements

Epoch: 2026-09-21T00:49:20.635968Z

Period
94.27 min
Inclination
43.0049°
Eccentricity
0.0000913
Mean motion
15.27592421 rev/d
Perigee alt
482.4 km
Apogee alt
483.6 km
Semi-major
6,861.1 km
B*
4.9031e-4
RAAN
131.1092°
Arg perigee
289.6282°
Mean anomaly
70.4471°
Rev number
9,313

§ Raw data

STARLINK-323291 62736U 25014B   26264.03426662  .00013259  00000+0  49031-3 0  99942 62736  43.0049 131.1092 0000913 289.6282  70.4471 15.27592421 93130

JSON: /api/v1/satellites/62736 · /tle

For live sub-satellite position, see the globe view (requires WebGL).

§ Visibility from observer

Set your observer location to see the next 7 days of passes ≥ 10°. The values pass through the URL so the page stays shareable.

No JS? Fill the form by hand. The geolocation button needs JavaScript.